CZ-6A DEB, 55875

Orbit data source: Space-Track

CZ-6A DEB, 55875 is space debris in SSO originally from a launch on Fri, 11 Nov 2022 UTC launched from the Taiyaun Space Center, China (TSC). Debris objects in space refer to the collection of defunct objects orbiting the Earth. Examples of debris include non-operational satellites, rocket bodies, and fragments generated from explosions, collisions, or faulty payload assembly.

Loading next visibility...
Identifier
55875, 2022-151ZX
Orbit
SSO
Country
Flag of CNCN / PRC
Related business
Manufacturer
SAST
Mission
Spacecraft
Bus & Motor
Unknown
Mass
Unknown
Launch date (UTC)
2022-11-11 (3 years ago)
Launch vehicle
Unknown
Launch site
Taiyaun Space Center, China (TSC)
Object type
Payload
Rocket body
Debris
Shape & HBR
Unknown shape, 0.1 m
Radar Cross Section
Small (<0.1 m²)

Expand to show TLE details & history
Last TLE update: 20 hours ago

TLE from 20 hours ago
0 CZ-6A DEB
1 55875U 22151ZX  26129.94033737  .00001999  00000-0  95648-3 0  9990
2 55875  98.8218 139.1342 0044326  66.1772 294.4042 14.19716196168060
Epoch: 2026-05-09T22:34Z
TLE epoch observation values (Epoch: 2026-05-09T22:34:05.148Z)
Latitude
0.00002°
Longitude
-67.13782°
Altitude
816.144 km
Speed
7.452 km/s
True Right ascension
09h 16m 32s
True Declination
0° 00' 00"
Sunlit
Object was in daylight at epoch
Visualization orbit readout
Latitude
Unknown
Longitude
Unknown
Altitude
Unknown
Speed
Unknown
Apparent Right ascension
Unknown
Apparent Declination
Unknown
Sunlit
N/A
Visualization observer readout
Local Sidereal Time
02:47:02
Azimuth
Unknown
Elevation
Unknown
Doppler factor
Unknown
Orbital elements
Apogee altitude
855.399 km
Perigee altitude
791.555 km
Semi-major axis
7,201.614 km
Eccentricity
0.00443
Inclination
98.8218°
RAAN
139.1342°
Arg. of periapsis
66.1772°
True anomaly
293.94059°
Mean anomaly
294.4042°
Eccentric anomaly
294.1725°
Mean motion
3.55139 °/min
Orbital period
101.37 mins
BSTAR
0.00095648
Loading maneuver chart data...
Computing Atmospheric mass density...
Loading historical data...
Loading historical data...
Loading historical data...
Loading historical data...
Loading historical data...
Loading historical data...
Loading historical data...

Documentation

Showing up to 5 results
|